User: anonymous   Login
Location: Killarney Provincial Park Observatory
(46.0124°N, 81.4000°W)
Time: 05:03:17
(UTC-05:00)
Language:

Iridium 22 - Orbit

View from above orbital plane
View from above orbital plane
View from above satellite
View from above satellite

Ground track
Ground track

The orbit data is extracted from the following two-line orbital elements,

1 24907U 97043E   17350.56646835  .00000114  00000-0  33614-4 0  9991
2 24907  86.3972 179.9059 0002019  92.7228 267.4199 14.34223761 63977
Epoch (UTC): 16 December 2017 13:35:42
Eccentricity: 0.0002019
inclination: 86.3972°
perigee height: 776 km
apogee height: 779 km
right ascension of ascending node: 179.9059°
argument of perigee: 92.7228°
revolutions per day: 14.34223761
mean anomaly at epoch: 267.4199°
orbit number at epoch: 6397

The dashed part of the orbit path shows where the satellite is in the earth's shadow,  

DLR